Wind_Speed
47 47 48 49 49 49 50 50 49 49 49 49 49 49 49 49 50 51 50 51 50 49 48 48 48 47 47 46 46 46 46 46 46 45 45 45 45 46 46 47 46 46 46
45 46 46 47 48 47 48 49 49 49 49 48 49 49 49 48 49 50 50 50 50 50 50 49 48 48 47 47 47 47 47 47 47 47 46 46 45 46 46 47 47 47 46
45 45 45 45 46 47 46 47 47 47 48 48 47 48 48 49 49 49 49 49 49 49 49 49 49 49 48 48 48 48 47 47 47 47 47 47 47 47 47 47 47 47 47
45 45 46 46 46 47 46 45 47 47 48 49 49 48 48 48 49 49 49 48 48 48 48 48 49 49 48 48 48 48 48 48 48 48 48 48 48 48 47 47 46 46 47
44 45 45 45 45 45 46 46 46 48 48 48 49 48 47 47 48 48 49 48 47 47 47 47 47 48 48 49 48 48 47 47 48 48 48 48 47 47 48 48 48 47 48
43 44 45 45 45 45 45 46 46 46 47 47 47 47 47 47 48 48 48 48 48 47 47 46 46 47 47 48 48 48 48 47 47 47 47 47 48 48 48 48 49 49 49
42 43 44 44 44 44 45 46 45 45 45 44 45 46 47 47 47 48 48 48 47 47 46 46 46 46 47 48 48 48 47 47 46 47 47 47 47 48 48 48 48 49 49
40 41 42 43 43 42 43 44 44 44 44 44 46 46 46 46 46 46 46 46 46 45 45 45 45 46 47 47 46 46 46 46 47 47 47 47 47 48 48 48 48 48 48
38 39 40 41 41 41 42 43 43 43 43 44 45 46 46 46 46 45 45 45 44 44 45 46 46 46 46 47 47 46 47 46 46 46 46 47 47 47 47 47 47 47 47
37 38 38 39 39 40 40 41 42 43 43 43 44 44 44 44 45 45 45 45 45 45 45 46 46 46 46 46 46 46 46 46 46 45 45 46 46 47 46 47 47 47 48
35 36 37 37 38 38 38 39 40 41 41 42 42 43 43 43 44 45 44 44 44 45 45 44 44 45 45 45 45 45 45 45 45 45 45 46 46 46 46 46 47 47 47
33 34 35 35 36 37 38 38 39 40 40 41 41 42 42 42 43 43 43 43 43 43 43 43 43 43 44 44 44 44 44 45 45 45 45 45 45 45 45 46 47 47 47
32 33 34 34 35 36 36 36 37 38 39 40 40 41 41 41 41 41 41 41 41 42 41 42 42 42 42 43 43 43 43 44 44 44 44 44 45 45 45 46 46 46 46
32 33 33 34 35 36 35 35 36 36 36 37 39 39 39 40 40 40 40 40 40 40 40 41 41 41 41 41 42 42 42 42 43 43 44 43 43 44 44 44 44 44 44
31 32 33 33 33 34 34 34 34 34 35 36 37 38 38 38 39 39 39 39 39 39 39 39 40 40 40 41 41 42 41 41 41 41 42 42 43 43 42 42 42 41 42
30 31 32 32 33 34 34 34 34 34 34 35 36 37 37 37 38 38 38 38 38 37 37 37 38 39 39 40 40 41 41 40 40 40 40 40 40 40 40 40 39 39 39
29 30 31 32 32 33 33 34 33 34 34 35 35 36 36 36 36 36 36 36 36 36 36 36 37 37 37 38 39 39 39 39 39 39 38 38 38 38 38 38 38 38 38
27 28 29 30 31 32 32 33 33 34 34 34 34 35 35 35 35 35 35 35 35 35 36 36 36 36 36 36 37 38 38 38 38 38 37 36 36 36 36 36 36 36 36
26 26 27 28 29 30 31 32 32 33 33 34 33 34 34 34 34 34 34 34 34 34 34 35 35 35 35 35 35 35 35 35 36 36 35 35 35 34 34 34 35 35 36
25 25 26 27 28 29 29 30 31 31 32 32 32 32 33 33 32 32 33 33 34 34 33 33 33 33 33 33 32 32 32 33 33 34 34 34 34 34 33 33 34 34 34
22 24 25 26 27 28 29 29 30 30 30 30 31 31 31 32 32 32 32 32 32 33 33 33 33 33 32 32 32 32 32 32 33 33 33 33 33 33 33 33 33 33 33
22 22 23 24 25 27 27 28 29 30 30 30 30 30 30 30 30 31 32 32 32 32 32 32 32 32 32 31 31 31 31 32 32 33 33 32 32 32 32 32 32 32 31
20 21 21 22 23 24 25 25 27 27 28 28 29 29 29 29 29 30 30 31 31 31 31 31 31 31 31 31 31 31 31 31 31 31 31 31 31 31 31 30 30 30 30
20 20 20 21 22 23 24 25 26 26 27 28 28 28 29 29 29 29 30 30 30 30 30 30 30 30 30 30 30 30 30 29 29 29 30 30 29 29 29 29 29 29 29
20 20 20 21 21 22 23 24 25 26 27 28 28 28 28 29 29 29 29 30 30 30 31 30 30 30 30 30 30 29 29 29 28 28 28 28 28 28 28 28 28 29 29
19 19 20 20 21 21 22 23 24 25 26 28 28 29 29 29 30 30 30 30 30 31 31 30 30 30 30 30 30 29 29 29 29 29 29 29 29 28 28 28 28 28 29
Wind_Direction
253 252 252 252 251 251 249 249 248 247 246 245 246 247 248 248 247 246 247 247 248 250 251 252 252 253 254 255 255 255 256 256 257 257 258 258 260 261 262 263 263 263 263
252 252 252 252 251 250 249 248 247 245 245 246 247 248 248 248 247 246 247 247 248 249 250 251 251 252 253 254 255 256 256 257 257 258 259 260 261 262 262 262 263 263 263
251 251 251 252 251 250 248 247 245 244 246 247 248 248 247 248 247 247 246 246 247 248 249 250 251 252 253 254 255 256 257 257 258 259 259 260 261 262 262 262 263 263 264
252 251 250 250 250 250 248 247 245 244 245 246 247 247 247 247 247 246 246 246 247 248 249 250 251 252 253 254 256 257 257 258 259 259 260 261 262 262 262 262 262 263 264
253 250 250 251 250 249 249 248 247 246 246 246 247 247 246 247 246 246 246 247 247 248 249 250 251 253 254 255 256 257 258 259 259 259 260 261 262 262 262 262 262 263 264
254 251 250 250 250 249 249 248 248 247 247 247 246 246 247 247 247 247 247 247 247 249 250 251 253 254 255 255 256 256 257 258 259 259 260 261 262 262 263 263 264 264 265
255 253 251 250 250 249 249 248 247 246 246 245 245 244 246 247 247 247 247 248 249 250 251 252 252 253 254 255 256 256 257 257 258 258 259 261 262 262 263 264 264 265 265
256 254 252 251 250 249 248 247 247 246 246 245 244 244 245 246 246 247 248 249 250 250 251 252 252 252 253 255 255 256 256 256 257 258 259 261 262 263 264 265 265 266 266
256 254 253 252 251 249 248 246 245 245 245 245 246 246 246 246 246 247 248 249 250 251 252 252 253 253 253 255 255 255 256 256 257 259 260 262 263 263 264 265 265 266 267
256 254 252 252 251 249 248 246 245 245 245 245 244 244 246 246 246 247 249 249 251 252 253 253 253 253 253 254 255 255 256 257 257 259 261 263 264 264 265 265 266 268 268
256 254 253 251 249 247 247 246 245 245 245 244 244 244 245 245 245 247 248 249 251 252 252 253 253 252 252 253 254 256 257 257 257 258 260 263 264 265 266 266 267 268 268
255 254 252 251 248 247 248 247 246 246 245 244 245 244 244 244 245 246 247 249 250 251 252 252 252 252 253 253 255 256 257 257 258 259 260 262 264 265 266 266 267 268 268
256 255 254 253 250 249 248 248 247 247 246 245 244 244 244 244 244 246 246 247 248 249 251 252 253 253 253 254 255 256 256 258 259 259 261 262 264 265 266 266 267 267 268
255 253 253 252 250 248 247 248 247 246 245 244 243 242 243 243 244 245 246 247 247 249 251 252 253 253 253 254 255 256 257 259 259 260 261 262 263 264 264 265 266 267 268
255 252 251 251 249 246 246 247 246 244 243 243 242 242 242 243 244 244 245 247 247 249 250 252 252 253 253 254 255 255 257 258 259 260 261 261 262 264 263 263 264 264 266
255 252 250 249 248 246 246 245 244 244 243 243 243 243 243 244 244 245 246 247 246 247 249 251 252 253 254 254 255 255 255 256 258 258 259 260 262 262 262 262 262 263 265
256 253 252 250 249 246 245 244 243 243 243 243 243 244 244 244 244 245 245 246 247 247 248 250 251 253 254 255 255 255 255 255 255 257 258 259 260 261 261 262 262 263 265
257 254 251 249 248 246 244 242 242 242 242 243 244 243 243 243 243 243 244 245 246 247 248 249 250 251 253 255 255 255 254 254 254 255 256 258 259 260 261 261 262 264 265
258 254 251 249 247 245 243 241 240 241 241 242 242 242 242 242 243 243 244 244 245 246 247 248 249 251 253 254 255 254 253 253 253 254 256 257 258 259 261 262 264 265 266
260 256 255 251 247 244 242 241 241 241 240 240 240 240 240 241 242 242 243 243 245 245 246 248 250 252 253 253 252 252 252 252 253 254 256 257 257 259 261 263 265 266 266
262 258 255 252 249 246 243 241 241 241 241 239 239 239 240 241 242 242 243 243 244 245 247 248 250 251 251 251 251 252 253 253 254 255 257 257 258 260 262 264 265 266 266
265 261 257 254 250 246 244 241 240 240 241 240 240 239 239 240 242 243 243 243 244 246 248 248 249 248 249 250 252 253 254 255 256 256 256 257 258 260 262 264 265 265 266
267 263 258 254 250 247 242 239 238 238 238 239 238 239 239 241 242 243 243 244 245 246 247 248 247 248 249 251 253 254 255 256 256 256 256 256 258 260 262 263 264 264 265
268 264 260 256 251 247 243 240 239 239 239 239 239 239 240 241 242 243 244 245 244 245 246 246 247 248 249 251 252 253 254 255 256 256 256 257 258 259 260 262 262 263 263
267 263 258 255 251 247 244 242 241 241 241 241 241 242 242 243 243 244 245 244 243 243 244 245 247 248 249 251 253 253 254 255 256 256 256 256 257 258 259 260 261 262 263
266 262 257 253 251 248 245 245 243 242 242 242 243 243 243 244 244 244 245 244 244 243 244 245 247 249 250 251 252 253 254 255 256 256 256 257 258 258 259 260 262 263 264
Height
5594 5595 5597 5599 5601 5603 5606 5609 5612 5615 5619 5623 5626 5630 5633 5637 5640 5644 5648 5652 5656 5659 5663 5666 5670 5672 5675 5677 5680 5682 5684 5686 5688 5691 5692 5693 5694 5695 5695 5696 5697 5698 5699
5581 5582 5584 5586 5588 5590 5593 5596 5599 5602 5606 5610 5613 5617 5620 5624 5627 5631 5635 5639 5643 5647 5650 5653 5657 5659 5662 5665 5667 5669 5672 5673 5676 5678 5680 5681 5682 5682 5683 5684 5685 5686 5687
5568 5570 5571 5573 5576 5578 5581 5584 5586 5590 5593 5597 5600 5604 5607 5611 5615 5618 5622 5626 5630 5634 5637 5641 5644 5647 5650 5652 5655 5657 5659 5661 5663 5665 5667 5669 5669 5670 5671 5672 5672 5673 5674
5555 5557 5559 5561 5563 5565 5568 5571 5574 5577 5581 5584 5587 5591 5595 5598 5602 5606 5610 5613 5617 5621 5624 5628 5631 5634 5637 5639 5642 5644 5646 5648 5650 5652 5654 5655 5656 5657 5658 5659 5660 5660 5661
5542 5544 5547 5549 5551 5553 5556 5559 5561 5565 5568 5571 5575 5578 5582 5586 5589 5593 5597 5601 5605 5608 5612 5615 5618 5621 5624 5626 5629 5631 5633 5635 5636 5638 5640 5642 5643 5644 5645 5646 5647 5648 5648
5530 5531 5534 5536 5538 5540 5543 5546 5549 5552 5555 5558 5562 5566 5570 5573 5577 5581 5584 5588 5592 5596 5599 5602 5605 5608 5610 5613 5615 5618 5620 5622 5623 5625 5627 5629 5630 5631 5631 5632 5633 5635 5636
5517 5519 5521 5523 5525 5528 5530 5533 5536 5539 5542 5546 5550 5554 5557 5561 5564 5568 5572 5576 5579 5583 5586 5589 5592 5595 5597 5600 5602 5604 5606 5608 5610 5613 5614 5615 5617 5618 5618 5619 5619 5620 5622
5505 5507 5508 5510 5513 5515 5517 5520 5523 5527 5530 5534 5537 5541 5545 5549 5552 5556 5559 5563 5567 5570 5573 5576 5579 5582 5584 5586 5589 5591 5593 5595 5598 5600 5602 5603 5603 5604 5604 5605 5606 5606 5608
5493 5494 5496 5498 5501 5503 5506 5508 5511 5514 5518 5521 5525 5529 5533 5536 5540 5544 5547 5551 5555 5558 5561 5564 5566 5569 5571 5574 5576 5579 5581 5583 5584 5586 5588 5589 5590 5590 5591 5591 5592 5593 5594
5481 5483 5485 5487 5489 5492 5494 5496 5499 5503 5506 5509 5513 5517 5521 5524 5528 5532 5535 5539 5543 5546 5549 5551 5554 5556 5558 5560 5563 5566 5568 5570 5572 5574 5575 5576 5576 5577 5578 5578 5579 5579 5580
5470 5471 5473 5475 5478 5480 5483 5485 5488 5491 5495 5498 5501 5505 5509 5512 5516 5520 5523 5527 5530 5533 5536 5538 5541 5543 5546 5548 5550 5553 5555 5557 5559 5561 5562 5563 5563 5564 5565 5565 5565 5566 5566
5459 5460 5462 5464 5466 5469 5472 5474 5477 5480 5483 5487 5490 5494 5497 5501 5504 5508 5511 5515 5518 5521 5524 5526 5528 5531 5533 5536 5538 5540 5542 5544 5546 5548 5549 5550 5550 5551 5552 5552 5552 5552 5552
5448 5450 5451 5453 5455 5458 5460 5463 5466 5469 5472 5475 5479 5483 5486 5489 5493 5496 5499 5503 5506 5509 5511 5514 5516 5519 5521 5524 5526 5528 5530 5532 5533 5535 5536 5537 5538 5538 5539 5539 5539 5539 5539
5438 5439 5441 5443 5445 5448 5450 5453 5455 5458 5461 5464 5468 5472 5475 5479 5482 5485 5488 5492 5495 5497 5500 5503 5505 5507 5509 5512 5514 5516 5518 5519 5521 5522 5523 5524 5524 5525 5526 5526 5527 5527 5527
5428 5429 5431 5433 5435 5437 5440 5443 5445 5448 5451 5455 5458 5461 5465 5468 5471 5474 5477 5481 5484 5486 5489 5491 5494 5496 5498 5500 5502 5504 5505 5507 5508 5510 5510 5511 5512 5513 5513 5514 5514 5514 5515
5418 5420 5421 5423 5425 5427 5430 5433 5435 5439 5441 5444 5447 5451 5454 5457 5460 5463 5466 5469 5472 5475 5478 5480 5483 5485 5487 5488 5490 5492 5493 5495 5496 5498 5499 5500 5500 5501 5502 5502 5503 5503 5503
5409 5410 5412 5414 5415 5418 5421 5423 5427 5429 5432 5435 5438 5441 5444 5447 5450 5453 5456 5459 5461 5464 5467 5469 5471 5473 5475 5477 5478 5480 5482 5483 5484 5486 5487 5488 5489 5490 5490 5491 5491 5491 5491
5400 5401 5402 5404 5406 5409 5411 5414 5417 5420 5423 5426 5428 5431 5434 5437 5440 5443 5446 5448 5451 5454 5456 5459 5461 5462 5464 5465 5467 5468 5470 5472 5473 5475 5476 5477 5478 5479 5479 5480 5480 5480 5480
5391 5392 5393 5395 5397 5399 5402 5405 5407 5410 5413 5416 5419 5421 5424 5427 5430 5433 5436 5439 5441 5444 5446 5448 5450 5452 5454 5455 5456 5458 5459 5461 5463 5464 5466 5467 5468 5468 5469 5469 5470 5470 5470
5383 5384 5385 5387 5388 5391 5393 5396 5398 5401 5404 5407 5409 5412 5415 5418 5421 5424 5426 5429 5432 5434 5436 5438 5440 5442 5443 5445 5446 5448 5449 5451 5452 5454 5455 5456 5457 5458 5459 5459 5459 5459 5459
5375 5376 5377 5378 5380 5382 5384 5387 5389 5392 5395 5398 5400 5403 5405 5409 5412 5414 5417 5419 5422 5424 5427 5429 5431 5432 5434 5435 5437 5438 5440 5441 5443 5444 5445 5446 5447 5448 5449 5449 5449 5449 5449
5368 5369 5369 5370 5372 5374 5376 5378 5381 5384 5386 5389 5392 5394 5396 5399 5402 5405 5408 5410 5412 5415 5417 5419 5421 5422 5424 5426 5428 5429 5430 5431 5433 5434 5435 5436 5437 5438 5439 5439 5439 5439 5439
5361 5361 5362 5363 5364 5366 5367 5370 5372 5375 5378 5381 5383 5386 5388 5391 5394 5396 5399 5401 5403 5405 5407 5409 5411 5413 5415 5416 5418 5419 5421 5422 5423 5424 5425 5426 5427 5428 5429 5429 5430 5430 5430
5354 5355 5355 5356 5357 5358 5360 5362 5365 5368 5370 5373 5375 5378 5380 5383 5385 5388 5390 5392 5394 5396 5398 5400 5402 5404 5406 5407 5408 5410 5411 5412 5413 5414 5415 5417 5418 5419 5419 5420 5420 5421 5421
5348 5348 5348 5349 5350 5351 5353 5355 5357 5360 5362 5365 5367 5370 5372 5374 5377 5379 5381 5383 5385 5387 5389 5391 5393 5395 5397 5398 5399 5401 5402 5403 5404 5405 5406 5407 5408 5409 5410 5411 5411 5412 5412
5341 5341 5341 5342 5343 5345 5346 5348 5350 5352 5354 5357 5359 5361 5363 5365 5367 5370 5372 5374 5376 5378 5380 5382 5384 5386 5387 5389 5390 5391 5393 5394 5395 5396 5397 5398 5399 5400 5401 5402 5402 5403 5403